[Iaude] MPEC S30: 2019 SZ [a=2.59,e=0.55,i=21.3,H=20.6]

mpec at marsden.cfa.harvard.edu mpec at marsden.cfa.harvard.edu
Sat Sep 21 01:18:32 EDT 2019


M.P.E.C. 2019-S30                            Issued 2019 September 21, 05:17 UT

     The Minor Planet Electronic Circulars contain information on unusual
         minor planets and routine data on comets.  They are published
    on behalf of Division F of the International Astronomical Union by the
          Minor Planet Center, Smithsonian Astrophysical Observatory,
                          Cambridge, MA 02138, U.S.A.

             Prepared using the Tamkin Foundation Computer Network

                              MPC at CFA.HARVARD.EDU
            URL https://www.minorplanetcenter.net/    ISSN 1523-6714

                                    2019 SZ                                     


Observations:
     K19S00Z* C2019 09 18.50729701 17 06.92 -15 27 29.3          19.04oVES030T08
     K19S00Z  C2019 09 18.51052701 17 06.23 -15 27 13.1          18.88oVES030T08
     K19S00Z  C2019 09 18.51667001 17 04.98 -15 26 43.6          18.96oVES030T08
     K19S00Z  C2019 09 18.52961501 17 02.36 -15 25 41.4          18.84oVES030T08
     K19S00Z KC2019 09 19.08230801 15 16.94 -14 41 22.1          18.9 GVES030J95
     K19S00Z KC2019 09 19.08545801 15 16.32 -14 41 06.6          19.1 GVES030J95
     K19S00Z KC2019 09 19.09015701 15 15.36 -14 40 44.3          19.4 GVES030J95
     K19S00Z KC2019 09 19.27827 01 14 40.27 -14 25 32.6          19.0 RqES030H36
     K19S00Z KC2019 09 19.28588201 14 38.49 -14 24 56.7          19.2 VuES030H21
     K19S00Z KC2019 09 19.28937301 14 37.82 -14 24 40.1          19.0 VuES030H21
     K19S00Z KC2019 09 19.29286401 14 37.12 -14 24 23.1          19.2 VuES030H21
     K19S00Z KC2019 09 19.29406 01 14 37.07 -14 24 16.8          18.5 RqES030H36
     K19S00Z KC2019 09 19.29635701 14 36.42 -14 24 06.0          19.2 VuES030H21
     K19S00Z KC2019 09 19.30008301 14 35.65 -14 23 48.2          19.2 VuES030H21
     K19S00Z KC2019 09 19.30192 01 14 35.47 -14 23 38.8          18.9 RqES030H36
     K19S00Z KC2019 09 19.31759 01 14 32.32 -14 22 23.4          17.8 RqES030H36
     K19S00Z KC2019 09 19.49339 01 13 57.47 -14 08 11.3          19.1 RoES030691
     K19S00Z KC2019 09 19.49867 01 13 56.39 -14 07 46.0          19.1 RoES030691
     K19S00Z KC2019 09 19.50395 01 13 55.38 -14 07 20.3          18.9 RoES030691
     K19S00Z KC2019 09 19.96072 01 12 31.01 -13 30 50.5          18.8 VqES030I93
     K19S00Z KC2019 09 19.96979 01 12 29.23 -13 30 05.2          18.2 VqES030I93
     K19S00Z KC2019 09 19.99880 01 12 23.08 -13 27 48.5          19.1 GVES030A44
     K19S00Z KC2019 09 20.00006001 12 23.20 -13 27 43.6          19.2 GVES030J95
     K19S00Z pC2019 09 20.00154501 12 22.51 -13 27 35.0          19.0 GVES030L01
     K19S00Z KC2019 09 20.00391101 12 22.06 -13 27 23.5          19.0 GVES030L01
     K19S00Z KC2019 09 20.00426301 12 22.37 -13 27 22.7          19.1 GVES030J95
     K19S00Z KC2019 09 20.00628501 12 21.62 -13 27 12.1          19.1 GVES030L01
     K19S00Z KC2019 09 20.00779 01 12 21.31 -13 27 05.6          18.6 GVES030A44
     K19S00Z KC2019 09 20.00850501 12 21.55 -13 27 03.1          18.9 GVES030J95
     K19S00Z KC2019 09 20.01677 01 12 19.54 -13 26 22.8          18.9 GVES030A44
     K19S00Z KC2019 09 20.26926601 11 32.14 -13 06 08.7          18.9 VuES030H21
     K19S00Z KC2019 09 20.27217501 11 31.58 -13 05 54.9          19.0 VuES030H21
     K19S00Z KC2019 09 20.27508401 11 31.02 -13 05 41.2          19.0 VuES030H21
     K19S00Z KC2019 09 20.27799201 11 30.44 -13 05 27.2          18.9 VuES030H21
     K19S00Z KC2019 09 20.29944 01 11 26.84 -13 03 41.6          18.9 RoES030291
     K19S00Z KC2019 09 20.30189 01 11 26.37 -13 03 29.3          19.1 RoES030291
     K19S00Z KC2019 09 20.30432 01 11 25.89 -13 03 17.8          19.1 RoES030291
     K19S00Z  C2019 09 20.36526 01 11 13.64 -12 58 28.4          19.2 GVES030703
     K19S00Z  C2019 09 20.37617 01 11 11.43 -12 57 34.5          19.1 GVES030703
     K19S00Z  C2019 09 20.38163 01 11 10.42 -12 57 08.5          19.3 GVES030703
     K19S00Z KC2019 09 20.90207 01 09 33.81 -12 15 46.9          18.3 RVES030A17
     K19S00Z KC2019 09 20.91466 01 09 31.35 -12 14 47.2          18.5 RVES030A17
     K19S00Z KC2019 09 20.92696 01 09 28.94 -12 13 48.6          18.8 RVES030A17
     K19S00Z KC2019 09 21.00919401 09 13.02 -12 07 18.7          19.0 GVES030Z99
     K19S00Z KC2019 09 21.01322101 09 12.23 -12 06 59.4          19.0 GVES030Z99
     K19S00Z KC2019 09 21.01724501 09 11.46 -12 06 40.4          19.3 GVES030Z99
     K19S00Z KC2019 09 21.03671 01 09 07.42 -12 05 05.2          19.0 GVES030104
     K19S00Z KC2019 09 21.03969 01 09 06.82 -12 04 51.1          18.9 GVES030104
     K19S00Z KC2019 09 21.04267 01 09 06.21 -12 04 36.9          18.9 GVES030104
     K19S00Z KC2019 09 21.04566 01 09 05.61 -12 04 22.9          18.8 GVES030104

Observer details:
104 San Marcello Pistoiese.  Observers P. Bacci, M. Maestripieri, M. D. Grazia. 
    Measurers P. Bacci, L. Tesi, G. Fagioli.  0.60-m reflector + CCD.
291 LPL/Spacewatch II.  Observer A. F. Tubbiolo.  1.8-m f/2.7 reflector + CCD.
691 Steward Observatory, Kitt Peak-Spacewatch.  Observer T. H. Bressi.  0.9-m 
   f/3 reflector + CCD.
703 Catalina Sky Survey.  Observer D. C. Fuls.  Measurers B. M. Africano, E. J. 
   Christensen, G. A. Farneth, D. C. Fuls, A. R. Gibbs, A. D. Grauer, H. 
   Groeller, R. A. Kowalski, S. M. Larson, G. J. Leonard, T. A. Pruyne, D. 
   Rankin, R. L. Seaman, F. C. Shelly.  0.68-m Schmidt + 10K CCD.
A17 Guidestar Observatory, Weinheim.  Observers M. Emmerich, S. Melchert.  
    0.36-m f/6 Schmidt-Cassegrain + CCD.
A44 Altschwendt.  Observer W. Ries.  0.45-m f/4.5 reflector + CCD.
H21 Astronomical Research Observatory, Westfield.  Observer R. Holmes.  
    Measurers S. Foglia, L. Buzzi, T. Linder, R. Holmes.  0.81-m f/4.0 
   astrograph + CCD, 0.76-m f/3.0 astrograph + CCD.
H36 Sandlot Observatory, Scranton.  Observer G. Hug.  0.56-m reflector + CCD.
I93 St Pardon de Conques.  Observer F. Losse.  0.40-m f/3.7 reflector + CCD.
J95 Great Shefford.  Observer P. Birtwhistle.  0.41-m f/6.3 Schmidt-Cassegrain 
   + CCD.
L01 Visnjan Observatory, Tican.  Observers K. Korlevic, F. Valentine.  Measurer 
   K. Korlevic.  1.0-m f/2.9 reflector + CCD.
T08 ATLAS-MLO, Mauna Loa.  Observers L. Denneau, J. Tonry, A. Heinze, H. 
   Weiland, H. Flewelling.  Measurers L. Denneau, J. Tonry, A. Heinze, H. 
   Weiland, H. Flewelling, B. Stalder, A. Fitzsimmons, J. Robinson, D. Young, 
   N. Erasmus.  0.5-m reflector + CCD.
Z99 Clixby Observatory, Cleethorpes.  Observer A. Mickleburgh.  0.36-m f/8 
   Schmidt-Cassegrain + CCD.

Orbital elements:
2019 SZ                                                  Earth MOID = 0.2525 AU
Epoch 2019 Apr. 27.0 TT = JDT 2458600.5                 Veres
M 335.05116              (2000.0)            P               Q
n   0.23714445     Peri.  310.66847     +0.76613061     +0.63949339
a   2.5850011      Node    10.15833     -0.42346681     +0.57717150
e   0.5502965      Incl.   21.26626     -0.48344570     +0.50785949
P   4.16           H   20.6           G   0.15           U   8
Residuals in seconds of arc
190918 T08  0.4+  0.1+    190919 691  0.4-  0.2+    190920 291  0.4-  0.4-
190918 T08  0.0   0.7+    190919 691  0.2+  0.3+    190920 291  0.1-  0.2+
190918 T08  0.1+  0.4+    190919 I93  0.5-  0.8-    190920 291  0.0   0.1+
190918 T08  0.6+  0.1-    190919 I93  0.3-  1.1+    190920 703 (0.3-  1.7-)
190919 J95  0.1-  0.1-    190919 A44  0.4-  0.3+    190920 703  0.6-  0.1-
190919 J95  0.0   0.1+    190920 J95  0.1-  0.3-    190920 703  0.6+  0.2-
190919 J95  0.3-  0.3-    190920 L01  0.9-  0.2-    190920 A17  0.4+  0.0
190919 H36  0.2+  0.1+    190920 L01  0.6-  0.0     190920 A17  0.2+  0.1-
190919 H21  0.0   0.2-    190920 J95  0.1-  0.5+    190920 A17  0.1-  0.1+
190919 H21  0.5+  0.5-    190920 L01  0.1-  0.0     190921 Z99  0.2-  0.1+
190919 H21  0.5+  0.3-    190920 A44  0.2-  0.1+    190921 Z99  0.3-  0.2+
190919 H36  0.1-  0.1-    190920 J95  0.2+  0.2-    190921 Z99  0.1-  0.1+
190919 H21  0.6+  0.0     190920 A44  0.0   0.2-    190921 104  0.5+  0.1+
190919 H21  0.3+  0.2-    190920 H21  0.1+  0.2+    190921 104  0.3+  0.0
190919 H36  0.4-  0.1+    190920 H21  0.4+  0.1+    190921 104  0.0   0.0
190919 H36  0.3-  0.0     190920 H21  0.7+  0.1-    190921 104  0.2-  0.2-
190919 691  0.1+  0.5+    190920 H21  0.7+  0.0

Ephemeris:
2019 SZ                  a,e,i = 2.59, 0.55, 21                  q = 1.1625
Date    TT    R. A. (2000) Decl.     Delta      r    Elong.  Phase     V
2019 08 22    02 36 19.5 -46 20 16   0.3113  1.1708   113.4    52.4    20.3
...
2019 09 06    01 57 09.1 -31 38 34   0.2716  1.2045   131.2    39.0    19.7
...
2019 09 14    01 31 40.1 -21 30 29   0.2653  1.2320   144.6    28.2    19.4
...
2019 09 20    01 12 22.9 -13 27 19   0.2710  1.2564   155.7    19.2    19.2
2019 09 21    01 09 14.6 -12 07 37   0.2729  1.2608   157.6    17.7    19.2
2019 09 22    01 06 08.4 -10 48 41   0.2751  1.2653   159.4    16.2    19.2
...
2019 09 28    00 48 31.1 -03 20 06   0.2945  1.2936   170.4     7.4    19.0
...
2019 10 06    00 28 44.3 +04 59 54   0.3358  1.3351   176.0     3.0    19.2
...
2019 10 21    00 05 40.1 +15 09 30   0.4530  1.4225   156.5    16.2    20.5

A. U. Tomatic                (C) Copyright 2019 MPC           M.P.E.C. 2019-S30




More information about the Iaude mailing list